パンスターズ彗星

C/2021 G3 ( PanSTARRS )

English version
Home page
Updated on March 7, 2023

---------------------------------------------------------------------

・ プロフィール

発見日 2021年4月1日
発見光度 22.1等
発見者 Pan-STARRS 1 telescope (Haleakala)

・ 軌道要素

Epoch 2023 Feb. 25.0 TT = JDT 2460000.5
T 2021 Oct. 18.22351 TT                                 Rudenko
q   5.1803303            (2000.0)            P               Q
z  -0.0000616      Peri.   10.60551     -0.80605771     +0.27304238
 +/-0.0000065      Node   147.40939     +0.44607842     -0.30279130
e   1.0003189      Incl.  102.87564     +0.38895375     +0.91310749
>From 19 observations 2022 Jan. 4-Nov. 24, mean residual 0".3.

・ 光度変化

        m1 = 11.0 + 5 logΔ + 10.0 log r

---------------------------------------------------------------------

軌道要素はM.P.E.C. 2022-X67に掲載されたものです。
光度グラフはComet for Windowsで作成したものです。

---------------------------------------------------------------------

Copyright(C) Seiichi Yoshida (comet@aerith.net). All rights reserved.